Погода в Здвинске

Погода в Здвинске : погода сейчас, прогноз погоды и архив. Всё, что Вы хотите узнать о погоде в Здвинске!

Хотите узнать прогноз погоды в Здвинске? Тогда Вам сюда: Погода в Здвинске

Поиск расширенной информации на нашем сайте:

Полезная информация: трубы 25 мм хром

Другие новости

Новости СМИ2

Главная страница сайта

Новости сайта

02.10.2013

Напоминаем, что на нашем новом сайте вы можете получить высокодетализированные прогнозы погоды по пунктам России, СНГ и мира (включающие важные для авиации метеовеличины, такие как направление и скорость ветра, видимость, явления погоды, количество и форма облачности, нижняя и верхняя граница облачности), а также ознакомиться с разнообразными материалами по авиационной метеорологии и подборкой полезных ссылок на эту тему.

Сайт Метеоцентр.Азия посвящён разработке технологий оптимизации авиаметеорологического обслуживания, включая проектирование и перспективное создание нескольких автоматизированных авиаметеорологических систем:
- система выпуска высокодетальных прогностических карт явлений погоды для нижнего воздушного пространства по России и ближнему зарубежью;
- система верификации прогнозов TAF (выпускаемых синоптиками официальных АМСГ РФ и ближнего зарубежья) и AUTOTAF (выпускаемых сайтом Метеоцентр.Азия) - выявление ошибок, онлайн-сопоставление с фактической погодой METAR, автоматическое внесение коррективов в прогнозы при резком отклонении фактической погоды от прогноза, подсчёт оправдываемости прогнозов по элементам и в целом;
- система обработки, анализа и отображения авиаметеорологической информации для применения провайдерами метеорологической информации.

Рекомендуем: Стойка для печатной продукции

Погода в Здвинске - сегодня

Время (UTC), дата Ветер
(°,м/с) 
Видим.   Явления Облачность Т
(°С)
Тd
(°С)
f(%) Тe
(°С)
Pmin
(гПа)
dP
(гПа)
Po
(мм)
O2
(г/м3)
Тmin Tmax R s Состояние
почвы
18 20.02.17 200 (Ю) 4{11}  20000 м    ясно 
-11.1 -13.9 80 -15  1018.8  0.6  753  317           
21 20.02.17 190 (Ю) 20000 м    4/0 средняя 
[Ac As]
-9.2 -11.2 85 -14  1016.6  -2.1  751  314           
00 21.02.17 190 (Ю) 6{11}  20000 м  позёмок  10/0 средняя 
[Ac As]
-4.2 -5.7 89 -8  1013.2  -3  749  307  -11.8      46  равномерный
сухой снег
100% 
03 21.02.17 200 (Ю) 6-11{14}  20000 м  позёмок{ливн. осадки}  10/8 600 м кучево-дожд., средняя 
[Cb cap|Ac und]
-2.4 -3.8 90 -6  1011  -2.1  748  304           
06 21.02.17 230 (ЮЗ) 7-11{13}  20000 м  позёмок{ливн. осадки}  10/8 600 м кучево-дожд., средняя 
[Cb cap|Ac und]
-0.4 -2.1 88 -4  1010.4  -0.5  747  302           
09 21.02.17 220 (ЮЗ) 7-13{15}  20000 м  позёмок  10/6 600 м кучево-дожд., средняя 
[Cb cap|Ac und]
-0.5 -2.2 88 -4  1011.2  0.9  748  302           
12 21.02.17 220 (ЮЗ) 8-13{14}  20000 м  позёмок{морось} [диам. гололёда 2 мм]  10/10 300 м 
[St]
-0.3 -2.2 87 -5  1012.3  749  302    -0.3  0.7     
15 21.02.17 230 (ЮЗ) 8-14{15}  20000 м  позёмок [диам. гололёда 2 мм]  10/10 300 м 
[St]
-0.1 -2.7 83 -4  1013.9  1.6  750  303           
18 21.02.17 220 (ЮЗ) 7-11{15}  20000 м  позёмок  10/10 300 м 
[St]
-0.8 -3.4 83 -5  1015.3  1.3  751  304           
21 21.02.17 220 (ЮЗ) 5{14}  20000 м  позёмок{снег}  10/10 600 м 
[Sc]
-1.1 -3.8 82 -4  1015.9  0.6  751  304           
00 22.02.17 220 (ЮЗ) 8-13{14}  20000 м  позёмок{снег}  10/10 1000 м 
[Sc]
-1.5 -3.8 84 -6  1016.8  0.9  752  305  -1.5    0.2  46  равномерный
сухой снег
100% 
03 22.02.17 210 (ЮЗ) 6{13}  20000 м    10/0 средняя 
[Ac As]
-2.7 -4.9 85 -7  1018.6  1.7  753  307  -2.7         
06 22.02.17 220 (ЮЗ) 6-11{13}  20000 м    10/0 верхняя 
[Cs]
-2.8 -5.5 82 -7  1019.8  1.2  754  308           
09 22.02.17 220 (ЮЗ) 6{13}  20000 м    10/0 верхняя 
[Cs]
-2.7 -5.8 79 -7  1021  1.2  755  308           
12 22.02.17 200 (Ю) 4{11}  20000 м    3/0 верхняя 
[Ci sp]
-3.8 -6.9 79 -7  1022.5  1.4  756  310    -1.6       
15 22.02.17 200 (Ю) 20000 м    3/0 верхняя 
[Ci sp]
-4.4 -6.9 83 -8  1023.8  1.2  757  311           
18 22.02.17 200 (Ю) 20000 м    3/0 верхняя 
[Ci sp]
-5.6 -8.1 83 -9  1024.6  0.7  757  312           
21 22.02.17 190 (Ю) 20000 м    3/0 верхняя 
[Ci sp]
-7 -9.5 82 -10  1025.3  0.6  758  314           
00 23.02.17 190 (Ю) 20000 м    ясно 
-8.4 -10.8 83 -11  1026.2  0.9  759  316  -8.4      46  равномерный
мокрый или
старый снег
100% 
03 23.02.17 190 (Ю) 20000 м    5/0 верхняя 
[Ci sp]
-9.8 -12.5 81 -13  1027.5  1.1  759  319  -10.1         
06 23.02.17 190 (Ю) 20000 м    ясно 
-6.5 -11 70 -9  1028.1  0.9  760  315           
09 23.02.17 200 (Ю) 20000 м    ясно 
-2 -8.8 60 -3  1028.1  0.2  760  309           
12 23.02.17 180 (Ю) 20000 м    ясно 
-4.7 -10.9 62 -6  1028.4  0.1  760  313    -2       
15 23.02.17 180 (Ю) 20000 м    ясно 
-8 -11.2 78 -10  1028.9  0.4  761  317           
18 23.02.17 170 (Ю) 20000 м    ясно 
-10.2 -12.1 86 -12  1028.6  -0.5  760  319           
Время (UTC), дата Ветер
(°,м/с) 
Видим.   Явления Облачность Т
(°С)
Тd
(°С)
f(%) Тe
(°С)
Pmin
(гПа)
dP
(гПа)
Po
(мм)
O2
(г/м3)
Тmin Tmax R s Состояние
почвы

Для получения пояснительной информации подведите курсор к названию столбца.

ПОГОДА в Здвинске - архив

Всё, что Вы хотите узнать о погоде в Здвинске - удобно и подробно!

Выберите нужную дату (начиная с 1 января 2015* года) и нажмите кнопку "Найти".
Будут отображены архивные сводки погоды по пункту Здвинск, начиная с указанной даты.


Отображать данные в формате CSV (для использования в таблицах Excel)


Внимание! Наш архив погоды предназначен исключительно для личного некоммерческого использования в познавательных целях. Если Вам необходимы официальные справки о состоянии погоды (для производственных, юридических, коммерческих и т.п. целей), обращайтесь в органы Росгидромета.

*Примечание: данная дата относится к архиву по метеостанциям СССР (Россия, СНГ, Балтия).
Архив по метеостанциям Зарубежной Европы и Азии (кроме Китая) хранится 10 дней, по другим регионам земного шара (Китай, Африка, Америка, Австралия, Океания) - 1 день.

Здвинск - район местоположения метеостанции


Название, широта, долгота, высота метеостанции:
Здвинск 54.7°ш. 78.7°д. 113 м над ур. моря [Российская Федерация]

Дополнительная информация

В oтличие oт бoльшинства пoгoдных сайтoв мы публикуем пoдрoбную метеoинфoрмацию в детальнoм прoфессиoнальнoм фoрмате.

Характеристики температуры и влажнoсти вoздуха измеряются на высoте 2 м в тени вдали oт зданий и деревьев.
Скoрoсть ветра измеряется на высoте 10 м (на урoвне рoста челoвека скoрoсть ветра ниже в 1.5-2 раза). Если метеoстанция нахoдится в гoрoде или в лесу, тo скoрoсть ветра занижена на 2-4 м/с пo сравнению с oткрытым местoм. Скoрoсть ветра над акватoриями крупных рек и oзёр, а также на вершинах хoлмoв на 2-5 м/с выше, чем в oбычных услoвиях.
Атмoсфернoе давление в разных тoчках местнoсти мoжет значительнo oтличаться oт давления на метеoстанции, в зависимoсти oт услoвий рельефа (при пoдъёме на 10 м давление пoнижается примернo на 1 мм рт.ст.).